Snowfall_Accumulation
0.0 0.0 0.0 0.0 0.1 0.3 0.6 1.0 2.3 2.6 0.1 0.0 0.0 0.0 0.0 0.0 0.0 0.0 0.0 0.0 0.0 0.0 0.0 0.0 0.0 0.0 0.0 0.0 0.0 0.0 0.0 0.0 0.0 0.0 0.0 0.0 0.0 0.0
0.0 0.0 0.0 0.0 0.1 0.2 0.3 0.1 0.5 1.8 2.6 0.0 0.0 0.0 0.0 0.0 0.0 0.0 0.0 0.0 0.0 0.0 0.0 0.0 0.0 0.0 0.0 0.0 0.0 0.0 0.0 0.0 0.0 0.0 0.0 0.0 0.0 0.0
0.0 0.0 0.0 0.0 0.0 0.1 0.1 0.2 0.2 0.5 2.8 0.0 0.0 0.0 0.0 0.0 0.0 0.0 0.0 0.0 0.0 0.1 0.0 0.0 0.0 0.0 0.0 0.0 0.0 0.0 0.0 0.0 0.0 0.0 0.0 0.0 0.0 0.0
0.0 0.0 0.0 0.0 0.1 0.2 0.2 0.2 0.2 0.3 1.6 1.4 0.6 0.7 0.5 0.0 0.0 0.0 0.0 0.0 0.0 0.0 0.0 0.0 0.0 0.0 0.0 0.0 0.3 0.2 0.3 0.0 0.0 0.0 0.0 0.0 0.0 0.0
0.0 0.3 0.0 0.0 0.1 0.1 0.2 0.6 0.5 0.4 1.5 2.1 1.1 0.2 0.7 0.0 2.1 0.3 0.0 0.0 0.0 0.0 0.0 0.0 0.0 0.0 0.0 0.0 0.1 0.1 0.1 0.3 0.1 0.0 0.0 0.0 0.0 0.0
0.0 0.0 0.3 0.2 0.2 1.3 1.4 3.0 2.6 2.3 1.7 1.3 0.9 0.7 1.5 0.9 0.7 1.2 0.6 0.4 1.6 0.0 0.0 0.0 0.0 0.0 0.0 0.0 0.0 0.0 0.0 0.0 0.0 0.0 0.0 0.0 0.1 0.0
0.2 0.7 0.4 1.3 1.3 1.5 3.0 2.3 2.3 2.1 3.0 4.4 2.9 1.7 0.7 0.4 0.4 0.2 1.8 1.1 4.2 1.0 1.1 2.6 1.7 0.7 0.0 0.0 0.0 0.0 0.0 0.0 0.1 0.4 0.4 0.6 0.4 0.4
0.6 0.7 1.6 3.1 2.5 2.3 1.6 1.5 1.8 4.4 5.1 4.3 3.4 1.4 0.3 0.2 0.3 0.6 3.4 6.2 9.5 0.0 7.8 4.0 1.4 2.0 0.3 0.0 0.0 0.0 0.1 0.1 0.1 0.2 0.9 0.4 0.7 0.8
4.2 4.6 3.1 2.8 3.3 1.9 1.0 1.0 1.8 1.2 1.6 2.5 2.0 0.4 0.4 0.3 1.7 2.6 3.7 6.6 8.1 5.8 8.6 6.4 1.9 2.9 0.0 0.0 0.0 0.0 0.0 0.1 0.1 0.4 0.8 0.9 0.7 0.8
4.4 3.2 2.4 2.1 1.3 1.0 1.2 1.1 0.6 0.0 0.0 0.3 0.2 0.5 1.3 0.6 1.8 3.1 3.0 3.7 2.4 3.5 10.2 14.2 6.3 2.8 0.6 0.1 0.4 0.7 0.0 0.1 0.1 0.4 0.7 1.4 1.1 0.3
0.7 0.0 0.0 0.1 0.1 1.0 1.6 1.3 0.5 0.2 0.0 0.0 0.3 0.2 0.2 0.1 0.1 1.4 6.8 8.5 7.8 5.7 9.5 12.1 6.8 7.8 1.5 0.5 0.2 0.5 0.0 0.1 0.1 0.2 0.4 0.8 0.5 0.8
2.1 0.0 0.1 0.3 0.9 1.9 2.0 1.5 2.1 0.0 0.8 0.3 0.1 0.0 0.0 0.0 0.0 0.0 3.1 12.5 12.1 9.4 4.3 12.1 8.7 10.1 10.9 0.2 0.4 0.5 0.7 0.4 0.4 0.0 0.2 0.3 0.5 0.6
2.6 1.2 0.1 0.3 1.4 1.0 1.5 2.9 2.6 0.9 1.0 0.8 0.8 0.2 0.0 0.0 1.2 0.8 0.3 5.5 13.5 12.6 3.4 14.8 16.9 10.7 17.1 9.1 0.5 0.5 0.6 0.7 0.6 0.4 0.2 0.2 1.2 2.2
2.6 0.5 0.4 1.1 1.3 0.8 0.6 0.5 1.5 1.5 2.1 2.3 2.6 2.4 1.4 0.6 0.3 0.9 1.0 0.2 0.6 6.9 5.4 7.8 25.1 16.2 24.1 18.5 2.3 1.3 0.6 0.2 1.1 1.2 0.7 1.3 1.6 2.3
1.3 1.7 2.8 1.2 1.0 1.6 0.8 1.3 0.9 1.0 4.5 3.8 1.6 1.0 0.5 1.2 1.4 1.9 1.6 2.2 2.1 2.6 4.1 6.3 13.6 17.9 25.3 26.0 9.8 2.0 2.6 0.6 0.1 1.7 2.4 3.1 3.0 3.4
0.4 2.2 2.4 4.4 1.1 0.6 0.6 0.3 0.3 0.9 2.7 4.4 2.5 2.3 2.5 1.5 2.0 1.4 2.8 3.7 6.9 6.6 3.7 5.6 8.2 16.9 23.8 14.2 17.3 7.0 1.9 5.7 1.3 1.6 3.8 3.0 2.5 3.1
8.6 9.5 6.6 6.7 3.7 3.4 2.9 2.6 2.6 2.0 3.0 2.0 3.6 4.8 3.5 4.6 2.9 2.4 3.6 5.7 9.0 6.2 6.9 10.0 9.9 12.6 16.5 20.1 13.4 12.1 6.0 5.9 5.3 6.6 6.4 4.8 1.2 2.8
19.3 14.6 12.7 11.3 10.3 7.2 4.8 5.7 4.5 4.3 4.0 4.5 5.6 5.5 8.7 6.7 6.1 7.4 6.7 8.0 13.2 10.8 11.7 12.7 13.4 18.2 20.3 23.8 18.4 14.5 11.2 9.2 9.5 10.5 7.3 10.3 6.9 3.7
17.2 11.6 12.5 12.2 12.8 9.6 10.3 9.3 8.9 4.3 5.4 8.5 12.5 10.1 11.2 11.5 11.9 8.6 8.6 10.6 13.4 12.8 14.9 14.2 19.6 22.4 27.9 24.2 22.3 19.9 26.8 15.6 14.2 15.3 8.7 8.8 9.1 5.8
11.4 10.3 10.8 11.5 11.8 12.0 13.7 12.4 11.3 9.3 10.4 12.4 14.1 13.1 13.1 15.3 13.3 12.3 9.2 12.3 14.7 13.3 16.5 18.2 20.2 23.3 35.8 33.0 31.4 24.8 23.2 20.0 24.3 19.3 15.3 12.9 12.4 6.1
9.8 10.1 10.4 11.0 12.4 9.4 9.9 14.2 15.0 13.9 11.9 13.8 11.5 13.0 11.7 16.1 13.5 10.7 9.7 9.8 14.0 15.5 20.5 17.2 15.8 17.6 23.5 30.8 32.3 29.0 25.8 15.0 9.1 24.3 22.9 24.5 14.4 10.5
13.2 10.4 8.8 9.1 9.6 8.4 9.3 11.5 14.7 15.4 11.7 10.5 9.0 10.9 10.5 13.2 14.1 12.4 11.7 13.5 11.2 13.5 17.4 16.2 16.3 20.2 27.9 33.0 28.5 21.7 24.8 26.8 20.7 8.4 8.0 12.6 24.9 27.6
15.0 14.0 9.7 9.8 9.6 8.7 9.7 11.4 11.2 11.7 8.6 10.6 10.8 10.2 10.5 13.2 9.1 11.3 13.4 13.1 11.0 14.7 15.9 21.9 20.0 17.6 21.1 25.5 23.6 23.1 21.2 23.4 28.2 16.8 26.5 10.3 6.1 6.6